Location: Unspecified
(54.1780°N, 0.0000°E)
Time: 17:45:32
(UTC+00:00)

Vanguard 2 - Pass Details

Date: 18 June 2019
Orbit: 553 x 2938 km, 32.9° (Epoch: 17 August)

Event Time Altitude Azimuth Distance (km) Brightness Sun altitude
Rises 13:02:31 0° 249° (WSW) 4,640 11.9 57.1°
Reaches altitude 10° 13:06:08 10° 235° (SW) 4,020 11.8 56.9°
Maximum altitude 13:14:08 23° 190° (S) 3,776 12.0 56.3°
Drops below altitude 10° 13:24:37 10° 147° (SSE) 5,401 12.1 55.5°
Sets 13:30:38 0° 135° (SE) 6,654 12.4 55.0°
